EW3203 Weather Reports


time (UTC)temp
F
wind
direction
speed
knots
gust
knots
rain 1hr
in
rain 24hr
in
rain mn
in
humidity
%
barometer
mb
20260506221514 46 17 0.0 5.2 0.02 1.12 1.12 96 1006.1
20260506220013 46 60 0.0 3.5 0.04 1.12 1.12 96 1006.3
20260506214521 45 1 0.9 6.1 0.05 1.11 1.11 96 1006.0
20260506213011 45 60 0.9 4.3 0.05 1.10 1.10 96 1005.7
20260506211511 45 56 1.7 6.1 0.04 1.09 1.09 96 1005.7
20260506210017 45 76 1.7 9.6 0.03 1.08 1.08 96 1005.6
20260506204511 45 42 2.6 10.4 0.03 1.06 1.06 95 1005.6
20260506203010 45 69 2.6 8.7 0.07 1.05 1.05 95 1005.4
20260506201511 45 29 0.9 7.8 0.09 1.05 1.05 96 1005.1
20260506200008 45 52 1.7 7.8 0.10 1.05 1.05 95 1005.2
20260506194507 45 359 1.7 8.7 0.11 1.04 1.03 95 1005.5
20260506193004 46 48 4.3 8.7 0.10 0.99 0.98 95 1005.4
20260506191502 46 266 2.6 9.6 0.13 0.97 0.96 95 1005.2
20260506190109 46 77 1.7 6.1 0.15 0.96 0.95 95 1005.2
20260506190004 47 18 0.9 6.1 0.15 0.96 0.95 95 1005.1
20260506184603 47 43 1.7 7.0 0.15 0.93 0.92 95 1005.2
20260506183103 48 31 0.0 7.0 0.12 0.89 0.88 95 1005.3
20260506181620 48 1 0.9 4.3 0.11 0.84 0.83 95 1005.1
20260506180052 49 24 0.9 5.2 0.12 0.81 0.80 96 1005.1
20260506174550 49 15 0.0 5.2 0.15 0.78 0.77 96 1005.0
20260506173057 49 6 0.0 6.1 0.16 0.76 0.75 96 1005.0
20260506171545 49 15 0.0 3.5 0.16 0.73 0.72 95 1005.1
20260506170047 49 41 0.9 2.6 0.14 0.69 0.68 95 1005.3
20260506164543 49 10 0.9 2.6 0.12 0.63 0.62 95 1005.5
20260506163040 49 51 1.7 6.1 0.13 0.60 0.59 95 1005.6
20260506161536 50 30 0.0 5.2 0.14 0.56 0.56 95 1005.8
20260506160034 50 61 0.0 4.3 0.16 0.55 0.54 95 1005.9
20260506154533 50 94 0.9 2.6 0.16 0.51 0.50 95 1006.2
20260506153030 51 33 0.0 1.7 0.16 0.47 0.46 95 1006.1
20260506151528 51 27 1.7 6.1 0.16 0.43 0.42 95 1006.2
20260506150027 52 24 0.0 2.6 0.14 0.38 0.37 95 1006.4
20260506144525 53 79 0.9 2.6 0.13 0.34 0.33 95 1006.6
20260506143023 53 32 0.0 4.3 0.13 0.31 0.30 95 1006.8
20260506141522 53 37 0.0 2.6 0.11 0.27 0.26 95 1007.1
20260506140023 53 27 0.9 3.5 0.10 0.24 0.23 95 1007.0
20260506134520 53 47 1.7 6.1 0.10 0.21 0.20 95 1006.8
20260506133018 53 42 1.7 7.8 0.10 0.18 0.17 94 1006.6
20260506131524 54 53 0.9 4.3 0.11 0.16 0.15 94 1006.5
20260506130014 55 41 0.0 3.5 0.10 0.14 0.13 94 1006.8
20260506124513 56 11 0.0 0.9 0.08 0.11 0.10 95 1006.9
20260506123012 56 355 0.0 1.7 0.05 0.08 0.07 94 1006.9
20260506121510 56 208 0.0 0.0 0.02 0.05 0.04 95 1007.3
20260506120017 56 208 0.0 0.9 0.02 0.04 0.03 95 1007.1
20260506114518 56 210 0.0 0.0 0.01 0.03 0.02 95 1006.6
20260506113023 56 210 0.0 0.0 0.01 0.03 0.02 95 1006.5
20260506111510 56 211 0.0 0.0 0.02 0.03 0.02 95 1006.8
20260506110011 55 211 0.0 0.0 0.01 0.02 0.01 94 1006.7
20260506104506 55 210 0.0 0.0 0.01 0.03 0.01 94 1006.6
20260506103009 55 210 0.0 0.0 0.01 0.03 0.01 93 1006.5
20260506101508 55 210 0.0 0.0 0.00 0.02 0.00 93 1006.4
20260506100009 55 210 0.0 0.0 0.00 0.02 0.00 93 1006.3
20260506094505 55 210 0.0 0.0 0.00 0.02 0.00 92 1006.3
20260506093004 55 210 0.0 0.0 0.00 0.02 0.00 92 1006.3
20260506091505 55 210 0.0 0.0 0.00 0.02 0.00 92 1006.3
20260506090000 56 210 0.0 0.0 0.00 0.02 0.00 91 1006.5
20260506084606 56 210 0.0 0.0 0.00 0.02 0.00 92 1006.4
20260506083058 56 210 0.0 0.9 0.00 0.02 0.00 91 1006.7
20260506081557 56 212 0.0 0.0 0.00 0.02 0.00 91 1006.9
20260506080106 57 212 0.0 0.0 0.00 0.02 0.00 91 1007.0
20260506073050 57 212 0.0 0.0 0.00 0.02 0.00 91 1007.3
20260506071550 58 212 0.0 1.7 0.00 0.02 0.00 90 1007.1
20260506061544 59 290 0.0 1.7 0.00 0.02 0.00 90 1007.3
20260506044532 61 292 0.0 0.9 0.00 0.02 0.00 85 1007.7
20260506043030 62 290 0.0 0.0 0.00 0.02 0.00 83 1007.9
20260506041527 62 290 0.0 0.0 0.00 0.02 0.00 82 1007.6
20260506040026 62 290 0.0 0.0 0.00 0.02 0.00 81 1007.5
20260506034529 63 290 0.0 0.0 0.00 0.02 0.02 80 1007.5
20260506033022 63 290 0.0 1.7 0.00 0.02 0.02 79 1007.3
20260506031520 63 297 0.0 1.7 0.00 0.02 0.02 78 1007.0
20260506030034 63 238 0.0 2.6 0.00 0.02 0.02 78 1006.9
20260506024544 63 242 0.0 1.7 0.00 0.02 0.02 79 1006.9
20260506023016 63 248 0.0 1.7 0.00 0.02 0.02 78 1006.8
20260506021516 63 212 0.0 0.9 0.00 0.02 0.02 78 1006.9
20260506020014 63 211 0.0 0.0 0.00 0.02 0.02 79 1006.7
20260506014514 63 231 0.0 0.9 0.00 0.02 0.02 79 1006.5
20260506013022 63 300 0.0 1.7 0.00 0.02 0.02 78 1006.2
20260506011513 63 226 0.0 2.6 0.00 0.02 0.02 78 1006.0
20260506010012 63 253 0.0 1.7 0.00 0.02 0.02 78 1006.0
20260506004512 63 197 0.0 2.6 0.00 0.02 0.02 76 1006.1
20260506003011 63 245 0.0 0.0 0.00 0.02 0.02 74 1005.4
20260506001510 64 245 0.0 0.0 0.00 0.02 0.02 73 1005.3
20260506000010 65 245 0.0 1.7 0.00 0.02 0.02 71 1005.1
20260505234509 66 200 0.0 3.5 0.00 0.02 0.02 69 1005.1
20260505233015 67 168 0.0 2.6 0.00 0.02 0.02 67 1005.0
20260505231509 67 184 0.9 5.2 0.00 0.02 0.02 66 1004.4
20260505230022 66 304 0.9 7.0 0.00 0.02 0.02 67 1004.4
20260505224508 67 304 0.9 4.3 0.00 0.02 0.02 68 1004.1
20260505223006 68 283 2.6 16.5 0.00 0.02 0.02 64 1004.3